Time,TemperatureF,DewpointF,PressureIn,WindDirection,WindDirectionDegrees,WindSpeedMPH,WindSpeedGustMPH,Humidity,HourlyPrecipIn,Conditions,Clouds,dailyrainin,SoftwareType,DateUTC
2013-05-04 00:10:00,50.0,47.0,29.89,West,266,0.0,4.0,88,0.08,,,0.19,weatherlink.com 1.10,2013-05-04 05:10:00,
2013-05-04 00:25:00,50.1,47.0,29.89,WSW,244,2.0,3.0,88,0.10,,,0.23,weatherlink.com 1.10,2013-05-04 05:25:00,
2013-05-04 00:40:00,49.5,46.0,29.88,WSW,251,3.0,8.0,88,0.14,,,0.28,weatherlink.com 1.10,2013-05-04 05:40:00,
2013-05-04 00:55:00,49.3,46.0,29.88,West,270,1.0,5.0,89,0.13,,,0.29,weatherlink.com 1.10,2013-05-04 05:55:00,
2013-05-04 01:10:00,49.0,46.0,29.87,West,268,3.0,4.0,89,0.11,,,0.30,weatherlink.com 1.10,2013-05-04 06:10:00,
2013-05-04 01:25:00,48.7,46.0,29.87,West,262,6.0,6.0,89,0.08,,,0.31,weatherlink.com 1.10,2013-05-04 06:25:00,
2013-05-04 01:40:00,48.0,45.0,29.87,WSW,252,4.0,7.0,88,0.05,,,0.33,weatherlink.com 1.10,2013-05-04 06:40:00,
2013-05-04 01:55:00,47.5,44.0,29.86,WSW,257,2.0,7.0,88,0.05,,,0.34,weatherlink.com 1.10,2013-05-04 06:55:00,
2013-05-04 02:10:00,47.1,44.0,29.87,West,263,2.0,6.0,88,0.05,,,0.35,weatherlink.com 1.10,2013-05-04 07:10:00,
2013-05-04 02:25:00,46.7,44.0,29.87,WSW,246,3.0,7.0,89,0.10,,,0.41,weatherlink.com 1.10,2013-05-04 07:25:00,
2013-05-04 02:40:00,45.9,43.0,29.86,West,275,0.0,5.0,88,0.12,,,0.45,weatherlink.com 1.10,2013-05-04 07:40:00,
2013-05-04 02:55:00,45.3,42.0,29.86,WSW,252,2.0,7.0,88,0.12,,,0.46,weatherlink.com 1.10,2013-05-04 07:55:00,
2013-05-04 03:10:00,45.4,42.0,29.85,WNW,287,1.0,7.0,89,0.11,,,0.00,weatherlink.com 1.10,2013-05-04 08:10:00,
2013-05-04 03:25:00,45.4,42.0,29.86,West,271,0.0,5.0,89,0.08,,,0.02,weatherlink.com 1.10,2013-05-04 08:25:00,
2013-05-04 03:40:00,45.1,42.0,29.86,NW,314,0.0,3.0,90,0.07,,,0.06,weatherlink.com 1.10,2013-05-04 08:40:00,
2013-05-04 03:55:00,45.4,43.0,29.86,WSW,246,0.0,4.0,90,0.09,,,0.08,weatherlink.com 1.10,2013-05-04 08:55:00,
2013-05-04 04:10:00,45.1,42.0,29.86,West,273,0.0,4.0,89,0.08,,,0.08,weatherlink.com 1.10,2013-05-04 09:10:00,
2013-05-04 04:25:00,44.9,42.0,29.85,WSW,242,3.0,3.0,90,0.07,,,0.09,weatherlink.com 1.10,2013-05-04 09:25:00,
2013-05-04 04:40:00,45.0,42.0,29.86,North,355,3.0,3.0,90,0.06,,,0.12,weatherlink.com 1.10,2013-05-04 09:40:00,
2013-05-04 04:55:00,44.8,42.0,29.85,SW,216,0.0,4.0,90,0.07,,,0.15,weatherlink.com 1.10,2013-05-04 09:55:00,
2013-05-04 05:10:00,44.6,42.0,29.85,WSW,242,1.0,2.0,90,0.09,,,0.17,weatherlink.com 1.10,2013-05-04 10:10:00,
2013-05-04 05:25:00,45.0,42.0,29.86,WSW,247,0.0,3.0,90,0.09,,,0.19,weatherlink.com 1.10,2013-05-04 10:25:00,
2013-05-04 05:40:00,45.1,42.0,29.87,SW,234,0.0,7.0,90,0.08,,,0.20,weatherlink.com 1.10,2013-05-04 10:40:00,
2013-05-04 05:55:00,44.9,42.0,29.87,SW,232,3.0,8.0,90,0.06,,,0.21,weatherlink.com 1.10,2013-05-04 10:55:00,
2013-05-04 06:10:00,44.8,42.0,29.87,WSW,237,0.0,6.0,90,0.04,,,0.22,weatherlink.com 1.10,2013-05-04 11:10:00,
2013-05-04 06:26:00,44.9,42.0,29.89,West,265,7.0,10.0,90,0.04,,,0.23,weatherlink.com 1.10,2013-05-04 11:26:00,
2013-05-04 06:41:00,44.4,42.0,29.88,WSW,250,0.0,7.0,90,0.06,,,0.26,weatherlink.com 1.10,2013-05-04 11:41:00,
2013-05-04 06:56:00,44.4,42.0,29.89,West,269,1.0,5.0,90,0.06,,,0.27,weatherlink.com 1.10,2013-05-04 11:56:00,
2013-05-04 07:11:00,44.7,42.0,29.88,West,269,0.0,1.0,91,0.06,,,0.28,weatherlink.com 1.10,2013-05-04 12:11:00,
2013-05-04 07:26:00,44.8,42.0,29.89,WSW,257,1.0,4.0,91,0.07,,,0.30,weatherlink.com 1.10,2013-05-04 12:26:00,
2013-05-04 07:56:00,44.6,42.0,29.89,WSW,246,6.0,8.0,91,0.07,,,0.34,weatherlink.com 1.10,2013-05-04 12:56:00,
2013-05-04 08:11:00,44.3,42.0,29.90,WSW,258,2.0,8.0,90,0.09,,,0.37,weatherlink.com 1.10,2013-05-04 13:11:00,
2013-05-04 08:26:00,44.7,42.0,29.90,WNW,300,1.0,5.0,91,0.08,,,0.38,weatherlink.com 1.10,2013-05-04 13:26:00,
2013-05-04 08:41:00,45.0,43.0,29.91,WSW,246,0.0,3.0,91,0.07,,,0.38,weatherlink.com 1.10,2013-05-04 13:41:00,
2013-05-04 08:56:00,45.2,43.0,29.91,West,263,0.0,3.0,91,0.06,,,0.40,weatherlink.com 1.10,2013-05-04 13:56:00,
2013-05-04 09:11:00,45.0,42.0,29.92,WSW,250,3.0,9.0,90,0.04,,,0.41,weatherlink.com 1.10,2013-05-04 14:11:00,
2013-05-04 09:26:00,44.9,42.0,29.92,West,261,2.0,6.0,90,0.05,,,0.43,weatherlink.com 1.10,2013-05-04 14:26:00,
2013-05-04 09:41:00,44.9,42.0,29.92,SW,225,1.0,4.0,90,0.08,,,0.46,weatherlink.com 1.10,2013-05-04 14:41:00,
2013-05-04 09:56:00,44.7,42.0,29.93,WSW,242,2.0,6.0,90,0.10,,,0.50,weatherlink.com 1.10,2013-05-04 14:56:00,
2013-05-04 10:11:00,44.5,42.0,29.94,West,269,0.0,6.0,90,0.13,,,0.54,weatherlink.com 1.10,2013-05-04 15:11:00,
2013-05-04 10:26:00,44.5,42.0,29.94,WSW,242,3.0,5.0,90,0.13,,,0.56,weatherlink.com 1.10,2013-05-04 15:26:00,
2013-05-04 10:41:00,44.6,42.0,29.95,SSW,194,1.0,6.0,90,0.12,,,0.58,weatherlink.com 1.10,2013-05-04 15:41:00,
2013-05-04 10:56:00,44.7,42.0,29.96,WSW,250,3.0,8.0,90,0.10,,,0.60,weatherlink.com 1.10,2013-05-04 15:56:00,
2013-05-04 11:11:00,45.0,42.0,29.95,WSW,247,0.0,1.0,90,0.07,,,0.61,weatherlink.com 1.10,2013-05-04 16:11:00,
2013-05-04 11:26:00,45.1,42.0,29.94,West,278,2.0,2.0,89,0.06,,,0.62,weatherlink.com 1.10,2013-05-04 16:26:00,
2013-05-04 11:41:00,45.7,43.0,29.95,West,279,0.0,5.0,90,0.04,,,0.62,weatherlink.com 1.10,2013-05-04 16:41:00,
2013-05-04 11:56:00,45.9,43.0,29.95,SW,228,0.0,4.0,89,0.02,,,0.62,weatherlink.com 1.10,2013-05-04 16:56:00,
2013-05-04 12:11:00,46.1,43.0,29.96,West,275,0.0,5.0,89,0.01,,,0.62,weatherlink.com 1.10,2013-05-04 17:11:00,
2013-05-04 12:26:00,46.5,44.0,29.95,West,274,0.0,2.0,89,0.00,,,0.62,weatherlink.com 1.10,2013-05-04 17:26:00,
2013-05-04 12:41:00,46.5,43.0,29.94,West,269,0.0,5.0,87,0.00,,,0.62,weatherlink.com 1.10,2013-05-04 17:41:00,
2013-05-04 12:56:00,46.7,43.0,29.95,West,267,0.0,3.0,87,0.00,,,0.62,weatherlink.com 1.10,2013-05-04 17:56:00,
2013-05-04 13:11:00,47.0,43.0,29.95,SW,217,0.0,1.0,87,0.00,,,0.62,weatherlink.com 1.10,2013-05-04 18:11:00,
2013-05-04 13:26:00,47.3,43.0,29.95,WSW,252,0.0,3.0,85,0.00,,,0.62,weatherlink.com 1.10,2013-05-04 18:26:00,
2013-05-04 13:41:00,48.0,43.0,29.94,West,260,0.0,4.0,84,0.00,,,0.62,weatherlink.com 1.10,2013-05-04 18:41:00,
2013-05-04 13:56:00,48.4,44.0,29.94,WSW,238,0.0,2.0,83,0.00,,,0.62,weatherlink.com 1.10,2013-05-04 18:56:00,
2013-05-04 14:12:00,48.5,44.0,29.93,WNW,292,1.0,2.0,83,0.00,,,0.62,weatherlink.com 1.10,2013-05-04 19:12:00,
2013-05-04 14:26:00,49.0,44.0,29.93,WNW,293,0.0,1.0,82,0.00,,,0.62,weatherlink.com 1.10,2013-05-04 19:26:00,
2013-05-04 14:41:00,49.5,44.0,29.94,WNW,292,0.0,1.0,82,0.00,,,0.62,weatherlink.com 1.10,2013-05-04 19:41:00,
2013-05-04 14:56:00,49.6,44.0,29.93,WNW,292,0.0,0.0,80,0.00,,,0.62,weatherlink.com 1.10,2013-05-04 19:56:00,
2013-05-04 15:11:00,49.4,44.0,29.93,SSE,150,0.0,2.0,82,0.00,,,0.62,weatherlink.com 1.10,2013-05-04 20:11:00,
2013-05-04 15:26:00,49.5,44.0,29.93,SSE,150,0.0,0.0,82,0.00,,,0.62,weatherlink.com 1.10,2013-05-04 20:26:00,
2013-05-04 15:41:00,49.8,44.0,29.93,SE,130,0.0,1.0,80,0.00,,,0.62,weatherlink.com 1.10,2013-05-04 20:41:00,
2013-05-04 15:56:00,49.9,45.0,29.93,SE,130,0.0,1.0,82,0.00,,,0.62,weatherlink.com 1.10,2013-05-04 20:56:00,
2013-05-04 16:11:00,50.3,44.0,29.93,WSW,246,0.0,3.0,80,0.00,,,0.62,weatherlink.com 1.10,2013-05-04 21:11:00,
2013-05-04 16:26:00,50.4,45.0,29.94,West,267,0.0,1.0,82,0.00,,,0.62,weatherlink.com 1.10,2013-05-04 21:26:00,
2013-05-04 16:41:00,50.3,45.0,29.93,North,355,0.0,1.0,81,0.00,,,0.62,weatherlink.com 1.10,2013-05-04 21:41:00,
2013-05-04 16:56:00,50.3,45.0,29.94,North,355,0.0,1.0,83,0.01,,,0.63,weatherlink.com 1.10,2013-05-04 21:56:00,
2013-05-04 17:11:00,49.8,45.0,29.94,ESE,116,0.0,2.0,84,0.01,,,0.63,weatherlink.com 1.10,2013-05-04 22:11:00,
2013-05-04 17:26:00,49.9,45.0,29.95,ESE,116,0.0,0.0,83,0.01,,,0.63,weatherlink.com 1.10,2013-05-04 22:26:00,
2013-05-04 17:41:00,49.9,46.0,29.94,ESE,116,0.0,1.0,85,0.02,,,0.64,weatherlink.com 1.10,2013-05-04 22:41:00,
2013-05-04 17:56:00,50.0,46.0,29.93,NE,50,1.0,2.0,87,0.01,,,0.64,weatherlink.com 1.10,2013-05-04 22:56:00,
2013-05-04 18:11:00,49.4,46.0,29.93,NNE,32,2.0,4.0,87,0.01,,,0.64,weatherlink.com 1.10,2013-05-04 23:11:00,
2013-05-04 18:26:00,48.7,45.0,29.93,NE,40,0.0,4.0,88,0.02,,,0.65,weatherlink.com 1.10,2013-05-04 23:26:00,
2013-05-04 18:41:00,48.3,45.0,29.94,ESE,119,1.0,5.0,87,0.01,,,0.65,weatherlink.com 1.10,2013-05-04 23:41:00,
2013-05-04 18:56:00,48.0,44.0,29.94,ENE,57,1.0,4.0,87,0.01,,,0.65,weatherlink.com 1.10,2013-05-04 23:56:00,
2013-05-04 19:11:00,47.9,45.0,29.95,NE,51,0.0,1.0,88,0.01,,,0.65,weatherlink.com 1.10,2013-05-05 00:11:00,
2013-05-04 19:26:00,47.6,44.0,29.95,East,84,0.0,2.0,88,0.01,,,0.66,weatherlink.com 1.10,2013-05-05 00:26:00,
2013-05-04 19:41:00,47.4,44.0,29.95,East,84,0.0,0.0,88,0.02,,,0.67,weatherlink.com 1.10,2013-05-05 00:41:00,
2013-05-04 19:56:00,47.3,44.0,29.95,East,84,0.0,0.0,88,0.02,,,0.67,weatherlink.com 1.10,2013-05-05 00:56:00,
2013-05-04 20:11:00,47.1,44.0,29.94,East,84,0.0,1.0,89,0.02,,,0.67,weatherlink.com 1.10,2013-05-05 01:11:00,
2013-05-04 20:27:00,47.0,44.0,29.95,East,84,0.0,0.0,89,0.02,,,0.68,weatherlink.com 1.10,2013-05-05 01:27:00,
2013-05-04 20:42:00,46.9,44.0,29.94,East,84,0.0,0.0,89,0.01,,,0.68,weatherlink.com 1.10,2013-05-05 01:42:00,
2013-05-04 20:57:00,46.7,44.0,29.95,East,84,0.0,1.0,89,0.01,,,0.68,weatherlink.com 1.10,2013-05-05 01:57:00,
2013-05-04 21:12:00,46.5,44.0,29.95,East,84,0.0,1.0,89,0.01,,,0.68,weatherlink.com 1.10,2013-05-05 02:12:00,
2013-05-04 21:27:00,46.5,44.0,29.95,East,84,0.0,1.0,89,0.01,,,0.69,weatherlink.com 1.10,2013-05-05 02:27:00,
2013-05-04 21:42:00,46.5,44.0,29.95,East,85,0.0,0.0,89,0.02,,,0.70,weatherlink.com 1.10,2013-05-05 02:42:00,
2013-05-04 21:57:00,46.4,43.0,29.94,East,85,0.0,1.0,89,0.02,,,0.70,weatherlink.com 1.10,2013-05-05 02:57:00,
2013-05-04 22:12:00,46.4,44.0,29.94,East,85,0.0,1.0,90,0.02,,,0.70,weatherlink.com 1.10,2013-05-05 03:12:00,
2013-05-04 22:27:00,46.5,44.0,29.95,East,85,0.0,0.0,90,0.01,,,0.70,weatherlink.com 1.10,2013-05-05 03:27:00,
2013-05-04 22:42:00,46.3,44.0,29.93,East,85,0.0,1.0,90,0.01,,,0.71,weatherlink.com 1.10,2013-05-05 03:42:00,
2013-05-04 22:57:00,46.2,44.0,29.93,East,85,0.0,0.0,90,0.01,,,0.71,weatherlink.com 1.10,2013-05-05 03:57:00,
2013-05-04 23:12:00,46.4,44.0,29.93,East,86,1.0,2.0,90,0.02,,,0.72,weatherlink.com 1.10,2013-05-05 04:12:00,
2013-05-04 23:27:00,46.1,43.0,29.93,East,86,0.0,1.0,90,0.02,,,0.72,weatherlink.com 1.10,2013-05-05 04:27:00,
2013-05-04 23:42:00,46.1,43.0,29.93,SE,140,0.0,3.0,90,0.01,,,0.72,weatherlink.com 1.10,2013-05-05 04:42:00,
2013-05-04 23:57:00,46.0,43.0,29.92,East,90,0.0,1.0,90,0.02,,,0.73,weatherlink.com 1.10,2013-05-05 04:57:00,